Regional Weather Roundup
Issued by NWS Charleston, SC

Current Version | Previous Version | Graphics & Text | Print | Product List | Glossary On
Versions: 1 2 3 4 5 6 7 8 9 10 11 12 13 14 15 16 17 18 19 20 21 22 23 24 25 26 27 28 29 30 31 32 33 34 35 36 37 38 39 40 41 42 43 44 45 46 47 48 49 50
000
ASUS42 KCHS 220327
RWRCHS

REGIONAL WEATHER ROUNDUP
NATIONAL WEATHER SERVICE CHARLESTON SC
1000 PM EST SAT JAN 21 2017

NOTE: "FAIR" INDICATES FEW OR NO CLOUDS BELOW 12,000 FEET WITH NO
SIGNIFICANT WEATHER AND/OR OBSTRUCTIONS TO VISIBILITY.

NOT ALL STATIONS ARE QUALITY CONTROLLED. USE DATA WITH CAUTION...
ESPECIALLY DEWPOINT OBSERVATIONS.

SCZ027-030-031-034>040-042>050-220400-
...SOUTHEAST SOUTH CAROLINA...

CITY           SKY/WX    TMP DP  RH WIND       PRES   REMARKS
N CHARLESTON   CLOUDY    60  57  89 SW6       29.72R
WATERFRONT PRK   N/A     60  59  96 S8        29.70R
MOUNT PLEASANT FAIR      61  59  94 SW5       29.72R
JOHNS ISLAND   FAIR      61  59  94 S3        29.73R
PINOPOLIS        N/A     61  61 100 SW5       29.63R
MONCKS CORNER  FAIR      57  57 100 SW3       29.72S
SUMMERVILLE    FAIR     N/A N/A N/A S3        29.73S
BEAUFORT MCAS  CLOUDY    61  59  93 S6        29.73S
BEAUFORT ARPT  FAIR      59  59 100 SW6       29.73R
HILTON HEAD IS CLOUDY    61  61 100 S12       29.75R
WALTERBORO     CLOUDY    59  57  94 S6        29.72F
ALLENDALE      MOCLDY    59  59 100 CALM      29.70F

...SOUTHERN MIDLANDS AND PEE DEE...

CITY           SKY/WX    TMP DP  RH WIND       PRES   REMARKS
GEORGETOWN     FAIR      59  57  94 SW3       29.73R
KINGSTREE      FAIR      59  57  94 S5        29.70S
ORANGEBURG     CLOUDY    60  58  92 SW8       29.71R
BARNWELL       CLOUDY    61  61 100 SW6       29.71F
AIKEN          CLOUDY    59  55  88 SW9       29.73S
MANNING        FAIR      59  55  88 SW8       29.71S
COLUMBIA       CLOUDY    63  58  83 SW8       29.68S
SUMTER         CLOUDY    62  58  87 SW12      29.67R
FLORENCE       CLOUDY    64  61  90 SW14      29.69R
MYRTLE BEACH   LGT RAIN  61  57  88 MISG      29.72R
N MYRTLE BEACH CLOUDY    60  59  96 SW12G17   29.72R

$$

GAZ063-065-086>088-099>101-113>116-118-119-134>141-150-220400-
...SOUTHEAST GEORGIA...

CITY           SKY/WX    TMP DP  RH WIND       PRES   REMARKS
SAVANNAH ARPT  CLOUDY    60  58  92 S6        29.73F
HUNTER AAF     CLOUDY    62  62 100 S8        29.71F
FORT STEWART   MOCLDY    62  59  92 S6        29.71F
STATESBORO     PTCLDY    60  32  35 SW3       29.73R
SYLVANIA       PTCLDY   N/A N/A N/A CALM      29.73S
CLAXTON        FOG      N/A N/A N/A CALM      29.74R VSB 1/4

...CSRA...CENTRAL AND FAR SOUTHEAST GEORGIA...

CITY           SKY/WX    TMP DP  RH WIND       PRES   REMARKS
THOMSON        CLOUDY    63  61  96 W6        29.75S
AUGUSTA-BUSH   CLOUDY    63  58  83 SW8       29.70S
AUGUSTA-DANIEL CLOUDY    62  56  80 SW5       29.70S
SWAINSBORO       N/A    N/A N/A N/A SW5       29.73S
VIDALIA        CLEAR     61  61 100 CALM      29.72F
EASTMAN        CLOUDY    62  62 100 CALM      29.73F
HAZLEHURST     MOCLDY    63  63 100 S5        29.71F
ALMA           PTCLDY    61  61 100 S6        29.72F
WAYCROSS       LGT RAIN  65  65 100 S3          N/A
JESUP          FAIR      63  59  88 SW6       29.75S
BAXLEY         FAIR      63  63 100 S6        29.72S
BRUNSWICK      LGT RAIN  64  63  94 SW10      29.76F
SAINT SIMONS   CLOUDY    65  61  87 SW8       29.75R

$$

SCZ027-028-034-036>038-045-046-048>050-GAZ119-141-220400-
...LAKE AND SUPPLEMENTAL COASTAL OBSERVATIONS...

STATION/POSITION TIME  TEMP    WIND        PRES    WAVE   SWELL
                       AIR SEA DIR/SP/G            HT/PER HT/PER/DIR
                 (UTC) (F)     (DEG/KT/KT) (MB)    (FT/S) (FT/S/D)
WINYAH BAY       0245   60     270/  6     1006.0S
LAKE MURRAY      0230   62     230/  9/ 11 1004.4R
ACE BASIN NERRS  0245   60        CALM     1006.0S
FORT PULASKI     0300   61 59  220/ 10/ 14 1007.2
SAPELO ISLAND    0300   63     180/  9     1007.0

$$

ANZ835-935-AMZ111-154-330-350-352-354-370-450-454-472-220400-
...C-MAN AND BUOY OBSERVATIONS...

STATION/POSITION TIME  TEMP    WIND        PRES    WAVE   SWELL
                       AIR SEA DIR/SP/G            HT/PER HT/PER/DIR
                 (UTC) (F)     (DEG/KT/KT) (MB)    (FT/S) (FT/S/D)
BUOY 41004       0250   66 69  150/ 19/ 25 1004.1F   4/ 6   2/ 70/11
BUOY 41008       0250   63 62  190/ 16/ 19 1007.6R   3/11   2/ 30/11
FOLLY BEACH CMAN 0300   60     190/  9/ 10 1006.6R
CAPERS NEARSHORE 0308   59 56  200/ 10/ 14 1005.9R
FRIPP NEARSHORE  0308   61 59  210/ 14/ 17 1006.7R


STATION/POSITION TIME  TEMP    WIND        PRES    WAVE   SWELL
                       AIR SEA DIR/SP/G            HT/PER HT/PER/DIR
                 (UTC) (F)     (DEG/KT/KT) (MB)    (FT/S) (FT/S/D)
5E ST. MARYS GA  0300      63                N/A     2/12   2/ 90/12
FRYING PAN BUOY  0310   70 70  210/ 17/ 19 1006.8
BUOY 41025       0250   70 73  170/ 19/ 25 1007.0F   5/ 4   3/ 70/11
CAPE LOOKOUT NC  0300   65     190/  7/  8 1006.3F
BUOY 41002       0250   72 71  200/ 12/ 16 1010.8F   5/11   3/ 40/11
BUOY 41010       NOT AVBL
ST AUGUSTINE FL  0300   65 64   60/  7/  8 1010.8F


$$




USA.gov is the U.S. government's official web portal to all federal, state and local government web resources and services.